Temp
3 3 4 5 5 4 4 5 7 6 6 6 7 7 8 8 7 7 7 7 6 6 6 6 6 6 6 5 5 6 6 6 6 6 6 6 5 5 5 5 5 5 4
3 3 4 4 4 5 4 4 5 6 6 6 6 6 7 7 7 7 7 7 6 6 6 6 6 6 6 6 6 6 6 6 6 6 5 6 5 5 5 5 4 4 4
3 3 4 4 4 4 4 5 5 6 5 5 5 5 6 6 6 6 5 6 6 6 5 5 6 6 6 6 5 5 5 5 5 4 4 5 5 5 5 4 4 4 4
3 3 4 4 5 4 3 5 5 5 5 5 5 5 5 6 6 6 4 4 3 4 4 5 5 5 5 4 4 3 4 4 4 3 2 3 3 4 4 4 4 3 3
3 3 4 4 4 4 4 5 4 4 5 5 5 6 5 4 3 4 4 4 3 3 5 4 4 3 4 3 3 3 3 3 3 3 3 2 2 2 2 2 3 3 2
1 2 3 3 3 2 2 1 3 3 3 4 3 3 2 3 3 3 4 3 4 4 4 4 3 3 4 2 4 3 4 3 3 3 3 2 3 2 2 1 2 2 2
1 1 2 2 3 2 3 3 4 4 4 4 4 4 4 4 4 3 3 3 4 3 3 4 4 3 4 3 3 4 3 4 3 3 3 3 3 3 3 2 1 1 1
1 1 1 1 3 3 3 4 4 4 4 4 4 4 4 4 3 4 4 4 4 4 4 4 4 4 3 3 3 4 3 3 3 3 3 3 2 2 2 2 2 2 1
2 2 3 3 3 3 3 3 3 3 3 3 4 4 4 3 3 3 3 3 3 3 3 4 3 3 3 3 2 2 2 3 2 2 2 2 2 1 1 1 1 1 0
1 2 3 3 3 2 2 2 3 3 3 3 3 3 4 4 3 3 3 2 2 3 3 3 3 3 2 2 2 1 1 1 0 0 0 1 1 1 0 0 -0 -0 -0
1 2 2 3 2 2 2 2 2 2 2 3 2 3 3 2 2 2 1 1 1 1 1 1 2 2 1 1 0 1 0 0 0 0 0 -0 0 -0 -0 -0 -0 -0 -0
2 2 2 2 2 2 2 2 2 2 2 2 2 2 2 1 1 1 1 1 1 1 0 0 0 0 0 -0 0 1 1 0 0 1 0 0 -0 0 1 0 1 1 1
2 2 1 1 1 1 1 1 1 2 2 2 2 2 1 1 0 0 0 0 0 0 1 1 1 1 1 1 1 1 1 0 0 0 1 0 0 0 0 1 1 1 1
2 1 2 2 1 1 1 1 1 1 1 2 1 1 1 1 0 1 0 0 1 1 1 1 2 1 1 1 1 1 1 0 0 0 -0 0 0 1 1 1 1 1 1
1 2 1 1 1 1 1 1 1 1 1 1 0 1 1 1 0 0 1 1 1 1 1 1 1 1 1 1 0 0 1 1 0 0 -0 0 0 0 0 1 0 0 0
1 1 2 1 1 1 1 1 0 0 0 0 0 -0 0 0 0 1 1 1 1 1 1 1 0 0 0 0 0 -0 0 -0 -0 -0 -0 -0 -0 -0 0 0 1 1 0
-0 0 0 1 0 0 0 0 0 0 0 0 0 -0 0 0 0 0 1 1 1 0 0 -0 -0 -0 -0 -1 -1 -0 -0 -0 -0 -0 -0 -0 -0 -0 0 0 1 1 1
-0 -0 -0 0 0 0 0 0 0 -0 -0 0 0 0 0 0 0 0 0 0 0 0 0 0 0 -0 -0 -1 -1 -0 -0 -1 -1 -0 -0 -0 -0 -0 -0 0 1 1 0
-1 -1 -1 -1 -0 -1 -0 -0 -0 -0 0 1 1 1 0 0 0 0 0 -0 -0 -0 -0 -0 -1 -1 -1 -1 -1 -1 -1 -1 -1 -1 -1 -1 -1 -1 -1 -0 0 -0 -1
-2 -1 -1 -1 -1 -1 -1 -0 -0 0 0 0 0 0 -0 -0 -0 -0 -0 -1 -1 -1 -1 -1 -1 -1 -1 -1 -1 -1 -1 -1 -0 -1 -1 -2 -2 -2 -2 -1 -1 -1 -2
-2 -2 -2 -2 -2 -1 -1 -1 -1 -1 -1 -1 -1 -1 -1 -1 -1 -1 -1 -1 -1 -1 -2 -2 -2 -2 -2 -2 -1 -1 -1 -1 -1 -1 -2 -3 -3 -3 -2 -2 -3 -3 -3
-2 -2 -2 -2 -2 -2 -2 -2 -2 -1 -1 -2 -2 -2 -2 -2 -2 -2 -2 -2 -2 -2 -2 -2 -2 -2 -2 -2 -2 -2 -2 -2 -3 -2 -2 -3 -4 -4 -4 -5 -4 -4 -5
-3 -3 -2 -2 -2 -2 -2 -2 -2 -2 -2 -2 -2 -2 -2 -2 -2 -2 -2 -2 -3 -3 -3 -3 -3 -3 -3 -2 -2 -2 -2 -1 -3 -3 -3 -4 -4 -5 -6 -8 -9 -7 -7
-4 -4 -3 -3 -3 -3 -3 -3 -3 -2 -3 -3 -2 -2 -2 -2 -2 -3 -3 -3 -3 -4 -5 -5 -3 -3 -2 -2 -2 -2 -2 -2 -2 -3 -4 -4 -4 -6 -7 -7 -6 -6 -6
-4 -4 -4 -4 -4 -4 -4 -4 -3 -3 -3 -3 -3 -3 -3 -3 -3 -3 -3 -4 -4 -4 -5 -5 -4 -3 -3 -3 -3 -3 -3 -2 -3 -3 -4 -4 -6 -6 -7 -7 -7 -6 -6
-4 -4 -4 -4 -4 -4 -4 -4 -4 -4 -4 -4 -4 -3 -4 -4 -5 -5 -5 -5 -5 -6 -6 -5 -4 -4 -3 -3 -3 -3 -3 -3 -3 -3 -5 -6 -6 -7 -7 -7 -6 -6 -6
Height
3057 3061 3067 3072 3079 3082 3089 3100 3106 3112 3118 3125 3129 3133 3138 3143 3149 3154 3160 3164 3167 3170 3174 3176 3179 3181 3183 3184 3185 3186 3188 3188 3188 3188 3188 3187 3187 3187 3187 3187 3187 3186 3185
3053 3059 3065 3070 3077 3082 3086 3094 3103 3109 3115 3121 3126 3131 3136 3141 3146 3149 3154 3159 3163 3167 3170 3173 3176 3179 3181 3182 3183 3183 3183 3183 3183 3183 3183 3183 3183 3182 3182 3181 3182 3182 3181
3050 3057 3063 3068 3073 3079 3084 3093 3099 3103 3106 3115 3122 3126 3132 3137 3140 3143 3149 3154 3158 3162 3166 3169 3172 3174 3175 3177 3178 3179 3179 3178 3178 3178 3178 3176 3177 3177 3177 3176 3177 3176 3176
3048 3056 3062 3067 3073 3077 3082 3067 3095 3091 3101 3102 3108 3115 3121 3130 3137 3139 3142 3147 3150 3155 3158 3163 3166 3169 3170 3172 3172 3173 3173 3172 3172 3170 3171 3171 3171 3170 3171 3170 3171 3171 3170
3048 3053 3060 3066 3071 3073 3075 3079 3091 3096 3101 3103 3100 3105 3089 3116 3126 3136 3142 3144 3146 3151 3154 3157 3159 3162 3163 3164 3164 3165 3165 3163 3164 3162 3161 3161 3162 3163 3163 3164 3165 3163 3163
3047 3054 3059 3065 3069 3073 3073 3064 3080 3081 3094 3103 3096 3096 3104 3114 3121 3129 3133 3136 3139 3144 3148 3152 3154 3155 3155 3156 3156 3157 3157 3155 3154 3153 3152 3153 3154 3154 3154 3154 3157 3155 3155
3048 3053 3060 3066 3069 3074 3083 3085 3088 3087 3094 3101 3102 3106 3113 3118 3121 3122 3118 3130 3134 3136 3141 3143 3147 3146 3151 3150 3150 3150 3150 3147 3148 3146 3141 3144 3144 3145 3145 3145 3146 3146 3147
3047 3052 3061 3068 3073 3076 3079 3082 3085 3091 3097 3100 3104 3109 3112 3115 3119 3122 3125 3129 3133 3136 3139 3140 3141 3143 3144 3144 3144 3142 3141 3142 3141 3140 3139 3137 3139 3139 3138 3138 3139 3139 3139
3044 3054 3063 3068 3072 3077 3082 3086 3089 3094 3098 3101 3103 3106 3109 3114 3118 3120 3122 3126 3129 3132 3134 3135 3136 3137 3137 3136 3136 3134 3132 3133 3132 3134 3133 3134 3135 3132 3132 3133 3134 3133 3131
3052 3056 3061 3067 3071 3077 3081 3084 3088 3092 3095 3098 3102 3104 3107 3110 3113 3116 3118 3122 3124 3126 3128 3129 3131 3132 3132 3131 3130 3129 3129 3128 3127 3127 3127 3128 3128 3127 3127 3127 3127 3127 3126
3050 3055 3060 3064 3069 3075 3080 3083 3085 3088 3092 3094 3098 3100 3102 3106 3109 3112 3115 3117 3120 3122 3123 3124 3125 3126 3126 3126 3127 3126 3126 3126 3126 3126 3125 3125 3125 3125 3124 3124 3124 3123 3123
3048 3051 3056 3062 3067 3071 3075 3080 3083 3085 3087 3091 3094 3096 3099 3102 3105 3108 3110 3113 3114 3116 3119 3120 3122 3121 3121 3121 3122 3122 3122 3122 3121 3122 3121 3121 3121 3121 3121 3120 3119 3119 3117
3045 3049 3054 3060 3065 3070 3074 3077 3080 3083 3086 3088 3090 3092 3096 3099 3102 3104 3107 3109 3111 3112 3114 3115 3116 3116 3116 3116 3116 3117 3116 3116 3115 3114 3114 3114 3114 3113 3112 3111 3109 3109 3107
3042 3047 3053 3058 3064 3068 3072 3074 3077 3079 3082 3084 3087 3091 3093 3095 3097 3101 3104 3106 3107 3107 3108 3109 3109 3108 3109 3109 3110 3110 3110 3109 3109 3107 3107 3105 3105 3104 3103 3101 3100 3098 3097
3042 3046 3050 3054 3060 3064 3067 3069 3071 3075 3077 3080 3084 3087 3090 3093 3096 3097 3099 3100 3102 3102 3103 3103 3103 3103 3104 3104 3105 3103 3102 3101 3100 3099 3098 3096 3095 3094 3091 3090 3089 3087 3085
3040 3044 3046 3052 3056 3060 3064 3067 3070 3073 3073 3075 3078 3082 3085 3087 3089 3091 3093 3095 3096 3097 3098 3097 3098 3098 3098 3099 3098 3096 3095 3093 3093 3091 3090 3088 3086 3083 3080 3078 3076 3075 3073
3039 3042 3045 3049 3053 3057 3060 3063 3066 3069 3069 3072 3074 3077 3079 3081 3082 3084 3086 3088 3089 3090 3091 3091 3091 3091 3091 3090 3089 3087 3086 3085 3084 3082 3080 3078 3075 3072 3069 3067 3064 3061 3061
3037 3039 3043 3046 3049 3052 3055 3059 3061 3063 3065 3067 3068 3071 3072 3074 3076 3079 3080 3082 3083 3085 3085 3085 3084 3083 3082 3082 3081 3079 3078 3077 3075 3073 3071 3068 3065 3062 3059 3055 3052 3050 3049
3037 3038 3041 3043 3045 3048 3052 3054 3056 3058 3060 3061 3062 3063 3065 3068 3070 3072 3073 3075 3077 3078 3078 3078 3078 3077 3077 3076 3074 3072 3070 3069 3067 3065 3062 3059 3056 3052 3049 3045 3041 3039 3038
3038 3039 3042 3043 3045 3047 3049 3050 3051 3052 3054 3056 3058 3059 3061 3063 3064 3065 3067 3069 3070 3071 3071 3071 3070 3070 3069 3068 3066 3064 3061 3059 3057 3055 3052 3049 3047 3043 3040 3036 3032 3030 3030
3039 3040 3041 3042 3044 3045 3046 3047 3048 3049 3051 3053 3054 3055 3056 3058 3059 3060 3062 3063 3064 3065 3065 3064 3064 3064 3062 3059 3057 3054 3051 3049 3047 3046 3044 3041 3039 3036 3033 3029 3025 3023 3023
3038 3039 3040 3041 3042 3042 3043 3045 3046 3047 3048 3048 3049 3050 3052 3053 3054 3055 3056 3058 3058 3058 3058 3057 3057 3054 3052 3049 3047 3045 3043 3041 3039 3037 3036 3034 3032 3028 3025 3022 3019 3018 3018
3034 3036 3037 3038 3039 3040 3041 3042 3042 3043 3044 3045 3046 3046 3047 3048 3049 3049 3050 3050 3050 3050 3049 3048 3047 3045 3043 3041 3039 3037 3035 3034 3032 3029 3027 3026 3024 3021 3019 3017 3016 3015 3015
3031 3033 3034 3034 3035 3036 3037 3037 3037 3038 3039 3039 3040 3040 3041 3041 3042 3042 3042 3042 3042 3041 3041 3039 3038 3037 3035 3034 3032 3031 3029 3027 3024 3022 3020 3019 3017 3015 3014 3013 3013 3012 3011
3029 3030 3030 3031 3031 3031 3031 3031 3032 3032 3032 3032 3033 3033 3033 3033 3033 3033 3033 3034 3033 3033 3032 3031 3030 3030 3030 3028 3027 3025 3023 3020 3017 3015 3015 3013 3011 3010 3009 3008 3007 3007 3007
3025 3026 3026 3026 3026 3026 3026 3026 3025 3025 3025 3025 3025 3025 3025 3025 3025 3025 3025 3026 3026 3025 3025 3024 3023 3023 3023 3022 3020 3018 3016 3013 3011 3010 3009 3007 3005 3004 3003 3003 3002 3001 3001
Wind_Speed
37 34 36 43 43 39 41 39 39 35 39 41 39 39 39 36 33 30 29 29 27 26 25 24 23 23 21 20 21 22 22 22 22 23 23 22 22 22 21 20 19 19 19
39 34 32 36 51 41 44 47 39 39 41 40 35 33 36 37 34 33 32 30 27 25 24 23 22 22 23 24 25 25 25 26 26 27 27 27 26 25 24 24 22 23 23
38 35 32 31 32 40 41 46 41 40 46 41 41 35 33 33 36 32 28 27 25 21 20 20 23 23 22 26 24 25 27 26 25 27 30 30 29 26 26 26 26 26 25
36 37 31 29 29 39 39 43 36 42 40 42 43 45 51 49 43 43 32 35 32 23 24 28 32 32 34 34 35 39 34 34 31 37 41 35 27 29 27 28 29 28 27
47 34 30 26 23 21 33 35 34 38 31 34 43 43 32 31 34 39 37 38 34 28 29 32 31 32 34 33 29 32 39 30 39 41 32 40 36 28 45 36 33 34 30
26 30 28 27 23 16 9 13 21 22 25 26 20 34 21 12 33 27 32 21 19 28 28 28 31 33 28 25 28 34 27 27 34 35 41 42 38 46 46 42 38 35 33
34 30 29 29 26 19 15 13 12 11 11 11 7 9 13 14 16 12 16 19 21 18 16 26 26 26 29 24 25 32 31 30 30 31 44 30 38 44 40 44 45 41 43
37 22 21 22 21 16 18 15 11 9 12 13 13 15 13 11 13 15 14 16 18 20 22 25 28 26 26 29 33 31 31 34 28 25 24 28 31 38 45 38 33 35 37
26 13 20 20 21 18 15 14 13 12 12 15 17 16 16 16 17 17 17 17 17 17 17 19 22 26 29 23 16 19 19 29 31 33 29 25 26 22 23 30 35 24 24
18 19 22 23 19 17 17 17 16 15 15 13 15 16 15 15 14 13 12 12 14 16 18 18 21 21 22 16 8 6 5 8 9 8 7 11 18 18 20 21 23 25 27
24 21 22 23 22 21 20 19 13 11 11 12 13 13 12 11 10 10 8 9 10 14 15 16 19 22 20 14 16 14 13 12 12 13 16 18 20 21 23 26 28 29 30
23 22 19 24 24 22 19 18 16 15 15 14 14 12 11 12 10 10 10 11 11 14 15 18 17 19 18 16 17 20 21 22 23 23 26 28 24 25 28 32 33 36 37
26 25 23 20 22 21 20 18 19 19 19 15 15 14 14 14 14 12 14 17 18 16 16 19 21 22 23 23 24 26 28 26 27 27 28 29 31 33 35 37 40 41 41
16 20 29 29 23 23 21 22 23 22 17 16 17 17 15 14 14 15 16 18 18 19 21 25 25 24 25 25 26 26 26 26 27 28 30 32 35 37 39 41 42 44 45
18 17 24 26 25 24 23 20 20 19 17 18 20 18 18 16 17 17 19 19 21 21 22 21 21 22 22 23 24 25 26 28 30 32 34 36 37 38 39 40 41 41 42
15 17 24 26 23 23 22 21 21 19 16 20 23 27 25 22 20 21 22 22 22 22 22 21 20 20 22 25 25 26 28 29 30 32 35 37 39 41 42 43 44 43 43
11 15 17 26 26 25 25 25 26 23 22 22 24 26 28 26 25 26 26 26 25 24 24 22 22 23 24 25 26 27 28 30 33 35 37 38 40 41 41 42 43 43 42
10 13 18 21 25 27 28 29 28 27 27 27 28 30 30 30 29 29 28 26 26 27 25 25 26 26 27 27 29 31 32 33 35 36 37 38 40 41 41 41 40 38 38
7 9 13 19 23 26 27 28 28 26 23 23 25 26 27 28 27 27 26 25 26 25 25 26 26 27 28 29 31 31 33 34 36 38 40 40 41 42 42 40 37 35 33
5 6 9 11 13 16 17 19 20 20 20 21 21 22 23 24 24 23 23 24 24 25 25 26 26 27 30 31 32 34 38 40 37 35 37 37 38 40 40 39 34 31 29
3 5 5 7 9 11 13 15 16 18 18 18 18 19 20 21 22 22 24 23 24 25 26 26 28 30 32 36 38 39 39 40 38 35 34 34 35 37 38 36 29 27 25
5 7 8 9 9 10 11 12 14 16 16 17 18 19 20 21 22 22 23 25 26 26 28 30 32 34 35 37 39 39 38 38 37 37 34 32 33 35 37 30 23 19 18
10 11 11 12 13 13 13 14 16 17 18 19 21 22 23 24 25 26 27 28 29 30 32 32 33 36 38 35 33 33 33 32 32 35 33 30 31 31 29 23 17 16 15
16 16 15 15 15 15 16 17 19 20 22 23 25 27 28 29 30 31 31 31 30 30 35 36 37 32 29 28 28 27 28 30 30 29 27 28 30 24 22 19 18 18 18
20 19 19 19 19 20 20 20 21 22 23 23 25 26 27 28 29 30 31 31 30 29 31 31 26 25 24 26 26 27 27 28 28 26 25 27 22 22 21 21 20 22 22
20 20 21 22 21 20 20 20 20 21 22 22 23 25 24 24 26 26 24 24 28 29 28 27 27 28 27 27 27 27 27 26 27 25 23 22 21 20 21 22 23 23 22
Wind_Direction
193 197 200 200 208 203 204 205 213 216 211 209 207 203 201 200 197 196 201 202 205 206 209 211 214 218 225 234 243 252 259 265 268 270 273 272 269 268 265 260 261 264 266
192 190 198 202 208 203 206 199 210 213 206 208 213 215 209 204 202 200 201 205 208 213 220 223 228 233 242 250 257 262 266 270 273 274 273 271 270 270 265 259 258 259 265
195 191 195 195 203 205 194 200 208 212 200 202 213 216 215 206 206 200 205 205 211 212 220 230 239 243 247 265 271 278 274 271 276 283 279 275 272 269 266 265 261 262 263
192 192 191 191 201 203 212 205 202 215 216 204 217 215 216 216 213 217 211 218 217 223 232 239 250 243 245 261 272 268 279 272 275 279 276 273 267 269 259 266 261 262 263
201 184 183 182 186 198 218 192 207 202 218 226 228 217 198 225 215 209 224 230 226 227 234 239 247 252 254 265 280 279 271 264 280 281 284 265 255 253 266 261 257 255 257
195 183 173 172 176 185 208 196 185 188 206 221 249 253 277 274 222 233 228 239 235 232 247 250 247 247 251 302 280 267 291 272 296 278 273 283 268 261 274 257 253 254 262
189 177 173 183 181 185 210 211 213 225 237 237 229 229 227 225 233 243 241 255 248 252 266 260 260 265 271 277 268 275 275 266 288 292 278 264 270 269 257 257 255 254 263
175 160 181 183 177 193 216 220 217 222 232 241 231 234 238 237 240 245 245 251 256 258 263 265 262 267 274 273 274 276 272 272 282 263 256 256 258 247 243 248 258 270 272
171 185 187 195 189 197 213 233 233 237 232 224 229 232 235 228 225 228 233 237 248 254 256 257 262 264 267 275 284 272 261 256 265 258 258 252 256 259 262 264 266 277 270
199 207 205 208 197 199 217 235 243 243 244 227 234 232 235 235 236 240 248 254 262 260 268 265 258 254 259 256 263 286 291 277 276 273 278 259 256 252 252 272 283 288 291
204 201 200 192 195 207 222 235 245 254 250 242 243 236 231 226 221 225 238 257 257 260 258 259 258 265 250 250 260 266 269 265 269 274 279 270 265 268 275 275 279 281 282
209 205 204 210 213 212 226 242 247 257 273 257 247 239 217 217 233 239 254 248 234 231 246 260 264 262 259 259 272 269 267 266 265 269 273 275 270 262 264 269 277 278 280
217 215 208 209 214 216 227 245 258 267 270 250 246 231 225 233 234 229 241 246 259 256 266 267 270 270 273 275 274 269 269 272 275 275 277 279 276 274 274 275 278 280 282
209 220 219 220 219 228 236 248 261 266 257 233 231 223 227 233 229 231 235 255 264 266 264 266 265 265 267 269 270 273 276 277 278 280 280 280 279 278 278 277 277 277 278
218 215 207 208 217 223 234 247 257 261 257 233 223 225 223 230 233 242 250 257 264 266 266 263 259 261 263 266 268 271 275 280 283 285 285 285 284 284 283 282 281 280 279
216 225 213 209 213 226 226 238 249 255 252 239 230 227 233 243 243 254 257 265 269 266 266 264 262 263 267 268 272 277 281 283 284 285 286 286 286 287 286 285 284 280 278
215 207 206 208 215 219 228 239 245 250 251 248 239 234 235 242 249 257 262 267 268 269 270 269 271 272 274 277 279 283 285 286 288 288 289 291 290 291 291 288 285 282 278
206 212 214 212 217 225 232 239 245 249 257 253 245 241 241 245 250 255 258 258 260 263 265 269 273 278 281 281 284 286 288 289 290 291 293 294 294 295 296 295 290 284 278
171 196 212 220 227 233 238 243 247 250 248 242 240 239 239 242 245 246 250 255 258 262 267 271 273 275 277 279 280 284 286 287 289 292 293 294 295 297 298 297 292 286 278
159 182 185 194 204 215 221 229 232 234 235 232 230 231 234 238 242 247 252 255 260 264 266 268 271 275 277 279 283 287 289 292 294 293 293 294 296 298 301 299 293 287 279
189 202 204 208 212 216 218 223 225 229 233 234 233 234 237 241 244 247 251 254 258 261 265 270 273 276 281 285 288 291 293 294 295 293 293 292 295 297 300 298 291 288 284
232 239 235 230 229 230 231 232 234 237 237 238 240 240 241 242 244 248 252 255 259 265 269 273 278 282 284 287 290 292 291 290 290 292 290 290 294 297 300 295 289 283 279
245 254 244 240 241 243 244 243 246 246 245 245 245 246 247 250 253 256 260 264 268 271 274 277 279 280 284 287 286 287 290 291 291 291 291 288 295 292 297 288 287 288 273
254 253 258 261 257 253 252 254 255 254 254 254 255 255 256 257 258 260 262 265 268 272 277 273 277 281 282 285 286 291 296 297 295 294 291 293 293 283 290 276 276 274 269
248 250 251 255 261 266 270 269 265 262 261 260 258 256 256 257 258 259 262 265 268 269 271 274 272 274 277 281 287 291 294 295 294 292 293 298 285 285 278 273 268 273 264
251 256 258 260 263 267 270 270 270 268 266 265 266 262 258 257 259 265 269 263 266 272 277 280 276 274 274 279 284 289 293 296 294 295 295 293 281 281 276 276 269 268 259